Tracking 27122 objects as of 26-Mar-2023
HD Live streaming from Space Station
objects crossing your sky now

STARLINK-3749

Track STARLINK-3749 now!
10-day predictions
STARLINK-3749 is classified as:


NORAD ID: 52313
Int'l Code: 2022-041BE
Perigee: 546.0 km
Apogee: 547.8 km
Inclination: 53.2 °
Period: 95.4 minutes
Semi major axis: 6917 km
RCS: Unknown
Launch date: April 21, 2022
Source: United States (US)
Launch site: AIR FORCE EASTERN TEST RANGE (AFETR)
Your satellite tracking list
Your tracking list is empty




NASA's NSSDC Master Catalog

Two Line Element Set (TLE):
1 52313U 22041BE  23084.74669591 -.00001246  00000-0 -60203-4 0  9997
2 52313  53.2143 257.1734 0001290  71.6378 288.4754 15.08828517 52838
Source of the keplerian elements: AFSPC